| time (UTC) | temp F | wind direction | speed knots | gust knots | rain 1hr in | rain 24hr in | rain mn in | humidity % | barometer mb |
| 20260510111547 | 48 | 360 | 13.0 | 20.0 | 0.00 | 0.12 | 0.00 | 78 | 1012.0 |
| 20260510110049 | 48 | 360 | 6.1 | 9.6 | 0.00 | 0.12 | 0.00 | 76 | 1011.4 |
| 20260510104548 | 48 | 277 | 5.2 | 8.7 | 0.00 | 0.12 | 0.00 | 73 | 1010.9 |
| 20260510103042 | 48 | 360 | 6.1 | 9.6 | 0.00 | 0.12 | 0.00 | 72 | 1010.9 |
| 20260510101548 | 47 | 360 | 3.5 | 7.8 | 0.00 | 0.12 | 0.00 | 78 | 1010.3 |
| 20260510100106 | 46 | 360 | 5.2 | 9.6 | 0.00 | 0.12 | 0.00 | 85 | 1010.0 |
| 20260510094555 | 46 | 360 | 8.7 | 12.2 | 0.00 | 0.12 | 0.00 | 85 | 1010.1 |
| 20260510093044 | 46 | 360 | 7.0 | 12.2 | 0.00 | 0.12 | 0.00 | 84 | 1009.8 |
| 20260510091542 | 47 | 360 | 9.6 | 13.0 | 0.00 | 0.12 | 0.00 | 86 | 1009.7 |
| 20260510090047 | 47 | 302 | 11.3 | 15.6 | 0.00 | 0.12 | 0.00 | 87 | 1009.6 |
| 20260510084607 | 47 | 360 | 7.8 | 11.3 | 0.00 | 0.12 | 0.00 | 89 | 1009.3 |
| 20260510083046 | 48 | 360 | 6.1 | 10.4 | 0.00 | 0.12 | 0.00 | 88 | 1009.2 |
| 20260510081551 | 49 | 360 | 5.2 | 8.7 | 0.00 | 0.12 | 0.00 | 88 | 1009.0 |
| 20260510080043 | 48 | 360 | 7.0 | 10.4 | 0.00 | 0.12 | 0.00 | 90 | 1008.9 |
| 20260510074545 | 48 | 360 | 7.0 | 8.7 | 0.00 | 0.12 | 0.00 | 91 | 1008.6 |
| 20260510073052 | 48 | 298 | 7.0 | 11.3 | 0.00 | 0.12 | 0.00 | 90 | 1008.3 |
| 20260510071546 | 48 | 360 | 6.1 | 8.7 | 0.00 | 0.12 | 0.00 | 88 | 1008.2 |
| 20260510070050 | 49 | 360 | 7.0 | 13.0 | 0.00 | 0.12 | 0.00 | 86 | 1007.9 |
| 20260510064540 | 52 | 360 | 3.5 | 9.6 | 0.00 | 0.12 | 0.00 | 86 | 1007.9 |
| 20260510063050 | 52 | 360 | 5.2 | 8.7 | 0.00 | 0.12 | 0.00 | 86 | 1007.5 |
| 20260510061547 | 51 | 233 | 7.0 | 11.3 | 0.00 | 0.12 | 0.00 | 88 | 1007.4 |
| 20260510060050 | 51 | 190 | 5.2 | 9.6 | 0.00 | 0.12 | 0.00 | 87 | 1007.2 |
| 20260510054543 | 51 | 360 | 7.0 | 9.6 | 0.00 | 0.12 | 0.00 | 87 | 1007.1 |
| 20260510053045 | 52 | 360 | 6.1 | 10.4 | 0.00 | 0.12 | 0.00 | 86 | 1006.9 |
| 20260510051545 | 52 | 360 | 7.8 | 12.2 | 0.00 | 0.12 | 0.00 | 86 | 1006.7 |
| 20260510050048 | 52 | 360 | 7.0 | 10.4 | 0.00 | 0.12 | 0.00 | 86 | 1007.0 |
| 20260510044546 | 52 | 360 | 6.1 | 9.6 | 0.00 | 0.12 | 0.00 | 86 | 1006.8 |
| 20260510043048 | 52 | 360 | 4.3 | 8.7 | 0.00 | 0.12 | 0.00 | 86 | 1006.8 |
| 20260510041539 | 52 | 360 | 4.3 | 8.7 | 0.00 | 0.12 | 0.00 | 86 | 1006.7 |
| 20260510040052 | 52 | 360 | 7.0 | 12.2 | 0.00 | 0.12 | 0.00 | 86 | 1006.5 |
| 20260510034548 | 52 | 360 | 7.8 | 11.3 | 0.00 | 0.12 | 0.12 | 86 | 1006.1 |
| 20260510033100 | 53 | 360 | 6.1 | 11.3 | 0.00 | 0.12 | 0.12 | 86 | 1005.9 |
| 20260510031547 | 53 | 360 | 5.2 | 11.3 | 0.00 | 0.12 | 0.12 | 86 | 1005.6 |
| 20260510030047 | 53 | 360 | 6.1 | 13.0 | 0.00 | 0.12 | 0.12 | 86 | 1005.7 |
| 20260510024540 | 54 | 360 | 7.8 | 12.2 | 0.00 | 0.12 | 0.12 | 86 | 1005.5 |
| 20260510023045 | 54 | 360 | 8.7 | 13.0 | 0.01 | 0.12 | 0.12 | 85 | 1005.5 |
| 20260510021544 | 54 | 360 | 7.8 | 13.0 | 0.02 | 0.12 | 0.12 | 85 | 1005.2 |
| 20260510020047 | 54 | 360 | 5.2 | 17.4 | 0.05 | 0.12 | 0.12 | 87 | 1005.5 |
| 20260510014548 | 52 | 360 | 8.7 | 13.9 | 0.12 | 0.12 | 0.12 | 91 | 1004.8 |
| 20260510013048 | 51 | 360 | 7.0 | 10.4 | 0.11 | 0.11 | 0.11 | 93 | 1005.2 |
| 20260510011546 | 48 | 269 | 7.8 | 14.8 | 0.10 | 0.10 | 0.10 | 91 | 1005.7 |
| 20260510010045 | 49 | 288 | 13.0 | 21.7 | 0.07 | 0.07 | 0.07 | 90 | 1005.9 |
| 20260510004543 | 50 | 275 | 17.4 | 28.7 | 0.00 | 0.00 | 0.00 | 84 | 1005.9 |
| 20260510003045 | 62 | 282 | 5.2 | 8.7 | 0.00 | 0.00 | 0.00 | 66 | 1004.9 |
| 20260510001543 | 63 | 195 | 5.2 | 7.8 | 0.00 | 0.00 | 0.00 | 64 | 1003.5 |
| 20260509234554 | 64 | 186 | 3.5 | 7.0 | 0.00 | 0.00 | 0.00 | 61 | 1003.4 |
| 20260509233047 | 65 | 198 | 4.3 | 7.8 | 0.00 | 0.00 | 0.00 | 60 | 1003.2 |
| 20260509231548 | 65 | 185 | 5.2 | 9.6 | 0.00 | 0.00 | 0.00 | 59 | 1002.9 |
| 20260509230048 | 65 | 210 | 6.1 | 12.2 | 0.00 | 0.00 | 0.00 | 58 | 1003.2 |
| 20260509224544 | 65 | 211 | 5.2 | 13.0 | 0.00 | 0.00 | 0.00 | 59 | 1003.2 |
| 20260509223044 | 66 | 198 | 6.1 | 12.2 | 0.00 | 0.00 | 0.00 | 59 | 1003.2 |
| 20260509221545 | 66 | 211 | 7.0 | 12.2 | 0.00 | 0.00 | 0.00 | 58 | 1003.2 |
| 20260509220045 | 67 | 198 | 7.8 | 13.9 | 0.00 | 0.00 | 0.00 | 58 | 1003.2 |
| 20260509214544 | 66 | 179 | 6.1 | 15.6 | 0.00 | 0.00 | 0.00 | 59 | 1003.2 |
| 20260509213045 | 66 | 152 | 7.0 | 19.1 | 0.00 | 0.00 | 0.00 | 64 | 1003.3 |
| 20260509211542 | 67 | 189 | 8.7 | 19.1 | 0.00 | 0.00 | 0.00 | 61 | 1003.1 |
| 20260509210053 | 67 | 187 | 8.7 | 14.8 | 0.00 | 0.00 | 0.00 | 52 | 1003.2 |
| 20260509204552 | 67 | 205 | 7.0 | 13.9 | 0.00 | 0.00 | 0.00 | 54 | 1003.3 |
| 20260509203044 | 67 | 238 | 8.7 | 16.5 | 0.00 | 0.00 | 0.00 | 52 | 1003.5 |
| 20260509201549 | 68 | 233 | 7.0 | 13.0 | 0.00 | 0.00 | 0.00 | 57 | 1003.6 |
| 20260509194545 | 67 | 209 | 10.4 | 14.8 | 0.00 | 0.00 | 0.00 | 58 | 1003.6 |
| 20260509193045 | 66 | 208 | 8.7 | 15.6 | 0.00 | 0.00 | 0.00 | 60 | 1004.0 |
| 20260509191543 | 66 | 180 | 7.8 | 13.0 | 0.00 | 0.00 | 0.00 | 61 | 1004.3 |
| 20260509190043 | 66 | 219 | 7.0 | 16.5 | 0.00 | 0.00 | 0.00 | 56 | 1004.4 |
| 20260509184555 | 65 | 221 | 8.7 | 20.9 | 0.00 | 0.00 | 0.00 | 61 | 1004.7 |
| 20260509183046 | 64 | 198 | 7.0 | 12.2 | 0.00 | 0.00 | 0.00 | 66 | 1005.1 |
| 20260509181557 | 64 | 177 | 7.0 | 14.8 | 0.00 | 0.00 | 0.00 | 67 | 1005.2 |
| 20260509180045 | 64 | 182 | 10.4 | 15.6 | 0.00 | 0.00 | 0.00 | 66 | 1005.3 |
| 20260509174546 | 64 | 203 | 8.7 | 13.0 | 0.00 | 0.00 | 0.00 | 65 | 1005.4 |
| 20260509173049 | 64 | 147 | 8.7 | 15.6 | 0.00 | 0.00 | 0.00 | 69 | 1005.4 |
| 20260509171539 | 63 | 193 | 7.8 | 14.8 | 0.00 | 0.00 | 0.00 | 67 | 1005.5 |
| 20260509170048 | 63 | 167 | 3.5 | 9.6 | 0.00 | 0.00 | 0.00 | 66 | 1005.7 |
| 20260509164548 | 62 | 139 | 5.2 | 12.2 | 0.00 | 0.00 | 0.00 | 67 | 1005.9 |
| 20260509163045 | 62 | 109 | 7.0 | 10.4 | 0.00 | 0.00 | 0.00 | 68 | 1006.4 |
| 20260509161544 | 62 | 168 | 3.5 | 8.7 | 0.00 | 0.00 | 0.00 | 70 | 1006.5 |
| 20260509160047 | 61 | 138 | 5.2 | 10.4 | 0.00 | 0.00 | 0.00 | 70 | 1006.6 |
| 20260509154545 | 60 | 128 | 7.0 | 10.4 | 0.00 | 0.00 | 0.00 | 72 | 1006.7 |
| 20260509153047 | 60 | 184 | 5.2 | 11.3 | 0.00 | 0.00 | 0.00 | 69 | 1006.9 |
| 20260509151552 | 60 | 172 | 5.2 | 13.0 | 0.00 | 0.00 | 0.00 | 70 | 1006.9 |
| 20260509150045 | 59 | 190 | 3.5 | 10.4 | 0.00 | 0.00 | 0.00 | 69 | 1007.1 |
| 20260509144559 | 59 | 175 | 6.1 | 10.4 | 0.00 | 0.00 | 0.00 | 71 | 1007.2 |
| 20260509143105 | 58 | 180 | 5.2 | 9.6 | 0.00 | 0.00 | 0.00 | 73 | 1007.2 |
| 20260509141545 | 56 | 149 | 3.5 | 11.3 | 0.00 | 0.00 | 0.00 | 76 | 1007.4 |
| 20260509140049 | 55 | 173 | 6.1 | 11.3 | 0.00 | 0.00 | 0.00 | 77 | 1007.6 |
| 20260509134600 | 54 | 198 | 7.8 | 13.0 | 0.00 | 0.01 | 0.00 | 77 | 1007.8 |
| 20260509133046 | 54 | 192 | 7.0 | 12.2 | 0.00 | 0.01 | 0.00 | 77 | 1008.0 |
| 20260509131607 | 52 | 183 | 7.0 | 11.3 | 0.00 | 0.01 | 0.00 | 78 | 1008.1 |
| 20260509130055 | 51 | 196 | 6.1 | 10.4 | 0.00 | 0.01 | 0.00 | 79 | 1008.2 |
| 20260509124544 | 50 | 163 | 7.8 | 12.2 | 0.00 | 0.03 | 0.00 | 79 | 1008.1 |
| 20260509123101 | 49 | 184 | 8.7 | 13.0 | 0.00 | 0.03 | 0.00 | 79 | 1008.1 |
| 20260509121600 | 48 | 183 | 7.0 | 13.0 | 0.00 | 0.03 | 0.00 | 79 | 1008.3 |
| 20260509120047 | 47 | 148 | 6.1 | 10.4 | 0.00 | 0.03 | 0.00 | 79 | 1008.2 |
| 20260509114544 | 46 | 183 | 7.0 | 13.0 | 0.00 | 0.03 | 0.00 | 78 | 1008.2 |
| 20260509113048 | 46 | 360 | 7.0 | 13.9 | 0.00 | 0.03 | 0.00 | 77 | 1008.2 |